Погода в Георгиевском

Россия / Архангельская область     61°32′08″N   41°33′42″E
темп.,
°C
ветер,
м/с
пор.,
м/с
влажн.,
%
обл.,
%
осадки,
мм/ч
давл.,
гПа
погр.,
м
7 мая, пт
пт700:00+10ююв61589100 0.8 9971169
03:00+7юз51187100 1.4 999861
06:00+6юз51088100 0.1 1001942
09:00+8ююз697485 0.2 10031223
12:00+9ююз5869100 0.3 10041279
15:00+9юз4766100 0.9 10051411
18:00+8юз4779100 1.1 1006835
21:00+5ююз399255 1.4 1008340
8 мая, сб
сб800:00+3ююз28965 0.0 1009197
03:00+2ю27964 0.0 1011142
06:00+4ю288874 0.0 1011224
09:00+9ююв41070100 0.0 1011640
12:00+14ю61148100 0.1 10092194
15:00+12ююв51253100 0.3 10092263
18:00+10ююв51260100 0.1 10081792
21:00+7юв41392100 3.0 10071327
9 мая, вс
вс900:00+7юв41293100 2.3 10041357
03:00+7юв41196100 3.4 1002742
06:00+8вюв31099100 3.9 1001587
09:00+9ююв41097100 6.0 1001806
12:00+8з4691100 1.7 1004751
15:00+5з5896100 2.8 1009928
18:00+4зсз4109287 0.5 10141010
21:00+2зюз27955 0.5 1018149
10 мая, пн
пн1000:00+1зюз29942 0.0 1020179
03:00+1зюз25950 0.0 1023102
06:00+3юз27865 0.0 1024181
09:00+8юз47605 0.0 1025669
12:00+12юз584394 0.0 10242257
15:00+12юз5849100 0.0 10241863
18:00+12юз3862100 0.0 10241458
21:00+8зюз3781100 0.1 1026526
11 мая, вт
вт1100:00+7юз379186 0.0 1026394
03:00+7ююз2994100 0.1 1026352
06:00+9ююз41292100 0.1 1025372
09:00+14юз51175100 0.1 1024513
12:00+19зюз6957100 0.0 10241225
15:00+21зюз61050100 0.0 10231528
18:00+18зюз51060100 0.0 10241006
21:00+14юз41371100 0.0 1024410